This demonstration page uses our WeatherBlox Daily Observations layout. Learn more.

Left ArrowRight Arrow

39.12711, -84.51439

Hourly Observations for June 25, 2016

Temp ( °F °C ) Dew Point ( °F °C ) Humidity (%) Winds ( mph kmh ) Pressure ( in mb ) Visibility ( mi km ) Precip ( " mm )
12:53 am 00:53 Clear with Mist and Fog 66 18.9 66 18.9 100 100 NNE 3 6 30.08 1019 5 8 0.00 0.00
12:57 am 00:57 Clear with Mist and Fog 65 18.3 65 18.3 100 100 NE 3 6 30.06 1018 1 2 0.00 0.00
1:04 am 01:04 Clear with Fog 66 18.9 66 18.9 100 100 NNE 3 6 30.06 1018 1 1 0.00 0.00
1:10 am 01:10 Clear with Mist and Fog 66 19 66 19 100 100 NE 3 6 30.06 1018 3 4 0.00 0.00
1:17 am 01:17 Clear with Mist and Fog 65 18.3 65 18.3 100 100 Calm 30.06 1018 5 8 0.00 0.00
1:53 am 01:53 Clear with Mist and Fog 64 17.8 64 17.8 100 100 NNE 3 6 30.09 1019 6 10 0.00 0.00
2:01 am 02:01 Clear with Mist and Fog 65 18.3 65 18.3 100 100 NNE 3 6 30.06 1018 2 3 0.00 0.00
2:12 am 02:12 Clear with Mist and Fog 64 18 64 18 100 100 NE 5 7 30.06 1018 3 5 0.00 0.00
2:53 am 02:53 Clear 64 17.8 64 17.8 100 100 Calm 30.09 1019 9 14 0.00 0.00
3:33 am 03:33 Clear with Mist and Fog 63 17.2 63 17.2 100 100 Calm 30.06 1018 2 2 0.00 0.00
3:41 am 03:41 Clear with Mist and Fog 63 17.2 63 17.2 100 100 Calm 30.06 1018 1 1 0.00 0.00
3:45 am 03:45 Clear with Mist and Fog 63 17.2 63 17.2 100 100 Calm 30.06 1018 3 4 0.00 0.00
3:53 am 03:53 Clear 63 17.2 63 17.2 100 100 Calm 30.09 1019 9 14 0.00 0.00
4:53 am 04:53 Clear with Mist and Fog 62 16.7 62 16.7 100 100 Calm 30.09 1019 6 10 0.00 0.00
5:53 am 05:53 Clear 61 16.1 61 16.1 100 100 Calm 30.11 1020 7 11 0.00 0.00
6:53 am 06:53 Sunny 62 16.7 62 16.7 100 100 Calm 30.12 1020 10 16 0.00 0.00
7:53 am 07:53 Sunny 66 18.9 63 17.2 90 90 Calm 30.13 1020 10 16 0.00 0.00
8:53 am 08:53 Sunny 70 21.1 60 15.6 71 71 Calm 30.14 1021 10 16 0.00 0.00
9:53 am 09:53 Sunny 74 23.3 64 17.8 71 71 Calm 30.15 1021 10 16 0.00 0.00
10:53 am 10:53 Sunny 78 25.6 65 18.3 64 64 VRB 3 6 30.15 1021 10 16 0.00 0.00
11:53 am 11:53 Sunny 82 27.8 65 18.3 56 56 VRB 5 7 30.14 1021 10 16 0.00 0.00
12:53 pm 12:53 Sunny 84 28.9 65 18.3 53 53 WNW 5 7 30.13 1020 10 16 0.00 0.00
1:53 pm 13:53 Mostly Sunny 85 29.4 65 18.3 51 51 SW 3 6 30.12 1020 10 16 0.00 0.00
2:53 pm 14:53 Sunny 86 30 65 18.3 49 49 E 5 7 30.11 1020 10 16 0.00 0.00
3:53 pm 15:53 Mostly Sunny 86 30 65 18.3 49 49 S 6 9 30.10 1019 10 16 0.00 0.00
4:53 pm 16:53 Mostly Sunny 87 30.6 65 18.3 48 48 SW 5 7 30.09 1019 10 16 0.00 0.00
5:53 pm 17:53 Mostly Sunny 87 30.6 65 18.3 48 48 S 5 7 30.08 1019 10 16 0.00 0.00
6:53 pm 18:53 Mostly Sunny 86 30 64 17.8 48 48 S 8 13 30.07 1018 10 16 0.00 0.00
7:53 pm 19:53 Sunny 83 28.3 67 19.4 59 59 SSE 6 9 30.08 1019 10 16 0.00 0.00
8:53 pm 20:53 Sunny 77 25 71 21.7 82 82 Calm 30.08 1019 10 16 0.00 0.00
9:53 pm 21:53 Clear 74 23.3 69 20.6 85 85 Calm 30.09 1019 10 16 0.00 0.00
10:53 pm 22:53 Clear 72 22.2 68 20 87 87 Calm 30.09 1019 10 16 0.00 0.00
11:53 pm 23:53 Clear 70 21.1 69 20.6 97 97 Calm 30.09 1019 7 11 0.00 0.00

Powered by AerisWeather